GW3283 Weather Reports


Display with metric or nautical units.
time (UTC)temp
F
wind
direction
speed
MPH
gust
MPH
rain 1hr
in
rain 24hr
in
rain mn
in
humidity
%
barometer
mb
20260504200048 78 342 2.0 11.0 0.00 0.00 0.00 52 1005.5
20260504194513 78 297 3.0 12.0 0.00 0.00 0.00 50 1005.6
20260504193057 78 20 3.0 13.0 0.00 0.00 0.00 50 1005.9
20260504191523 79 311 3.0 8.0 0.00 0.00 0.00 49 1006.2
20260504190107 80 310 3.0 8.0 0.00 0.00 0.00 49 1006.2
20260504184509 81 52 3.0 12.0 0.00 0.00 0.00 49 1006.4
20260504183035 82 313 3.0 10.0 0.00 0.00 0.00 49 1006.5
20260504181558 82 334 3.0 8.0 0.00 0.00 0.00 49 1006.5
20260504180036 81 288 3.0 12.0 0.00 0.00 0.00 47 1006.7
20260504174601 80 204 2.0 10.0 0.00 0.00 0.00 45 1007.0
20260504174501 80 360 3.0 10.0 0.00 0.00 0.00 48 1006.9
20260504173027 81 302 4.0 10.0 0.00 0.00 0.00 47 1007.1
20260504171508 81 252 3.0 10.0 0.00 0.00 0.00 44 1007.3
20260504081607 60 234 0.0 3.0 0.00 0.00 0.00 74 1008.6
20260504081503 60 234 0.0 3.0 0.00 0.00 0.00 75 1008.6
20260504060113 61 221 0.0 0.0 0.00 0.00 0.00 75 1009.6
20260504044516 62 221 0.0 0.0 0.00 0.00 0.00 73 1009.6
20260504043056 62 221 0.0 0.0 0.00 0.00 0.00 72 1009.7
20260504041514 63 221 0.0 0.0 0.00 0.00 0.00 72 1009.7
20260504040040 63 221 0.0 0.0 0.00 0.00 0.00 72 1009.9
20260504034510 63 221 0.0 0.0 0.00 0.00 0.00 71 1009.9
20260504033035 63 221 0.0 0.0 0.00 0.00 0.00 71 1009.9
20260504031559 63 221 0.0 0.0 0.00 0.00 0.00 70 1009.9
20260504030026 64 221 0.0 0.0 0.00 0.00 0.00 69 1009.8
20260504024557 64 221 0.0 0.0 0.00 0.00 0.00 68 1009.8
20260504023034 65 221 0.0 0.0 0.00 0.00 0.00 67 1009.8
20260504021504 65 221 0.0 0.0 0.00 0.00 0.00 67 1009.7
20260504020031 66 221 0.0 0.0 0.00 0.00 0.00 65 1009.6
20260504014557 66 221 0.0 0.0 0.00 0.00 0.00 64 1009.6
20260504013016 67 221 0.0 0.0 0.00 0.00 0.00 62 1009.4
20260504011540 68 221 0.0 1.0 0.00 0.00 0.00 61 1009.5
20260504010012 70 221 0.0 0.0 0.00 0.00 0.00 60 1009.4
20260504004532 71 221 0.0 2.0 0.00 0.00 0.00 59 1009.5
20260504003003 72 221 0.0 1.0 0.00 0.00 0.00 58 1009.4
20260504001546 74 221 0.0 1.0 0.00 0.00 0.00 56 1009.5
20260504000013 75 221 0.0 3.0 0.00 0.00 0.00 54 1009.7
20260503234524 76 219 0.0 3.0 0.00 0.00 0.00 49 1009.7
20260503233051 76 254 1.0 4.0 0.00 0.00 0.00 49 1009.8
20260503231600 77 293 2.0 6.0 0.00 0.00 0.00 47 1009.9
20260503231508 77 293 2.0 6.0 0.00 0.00 0.00 48 1009.8
20260503230022 77 223 1.0 3.0 0.00 0.00 0.00 47 1009.9
20260503224548 76 277 0.0 5.0 0.00 0.00 0.00 47 1009.9
20260503223009 76 304 1.0 4.0 0.00 0.00 0.00 48 1010.1
20260503221558 76 311 1.0 6.0 0.00 0.00 0.00 47 1010.3
20260503220019 76 277 1.0 4.0 0.00 0.00 0.00 47 1010.4
20260503214534 76 173 1.0 4.0 0.00 0.00 0.00 47 1010.7
20260503213049 76 332 2.0 10.0 0.00 0.00 0.00 47 1010.9
20260503211511 76 261 1.0 5.0 0.00 0.00 0.00 47 1011.3
20260503210044 75 272 0.0 8.0 0.00 0.00 0.00 47 1011.6
20260503204608 75 282 2.0 8.0 0.00 0.00 0.00 46 1011.8
20260503203020 75 177 2.0 9.0 0.00 0.00 0.00 47 1012.0
20260503201556 75 274 1.0 5.0 0.00 0.00 0.00 47 1012.3